www.pogodaiklimat.ru

Погода и климат >> Архив погоды >> Испания >> Валенсия


АРХИВ ПОГОДЫ в Валенсии

Время (UTC), дата Ветер
(напр.,м/с)
 
Видим.   Явления Облачность Т
(С)
Тd
(С)
f
(%)
Тe
(С)
Тes
(С)
Комфортность P
(гПа)
Po
(гПа)
Тmin
(С)
Tmax
(С)
R
(мм)
R24
(мм)
S
(см)
10 10.08 В 6 н/о н/о +33.2 +20.3 47 +40 +40 очень
душно
1016.3 1009.3
11 10.08 В 7 н/о н/о +32.6 +21.5 52 +41 +41 опасность
перегрева
1016.3 1009.3
12 10.08 В 8 50 км 1/1 1000 м
[Cu hum]
+33.3 +19.5 44 +39 +42 очень
душно
1015.8 1008.8
13 10.08 В 8 н/о н/о +32.9 +21.6 52 +41 +41 опасность
перегрева
1015.7 1008.7
14 10.08 В 8 н/о н/о +32.5 +21.6 53 +41 +41 опасность
перегрева
1015.3 1008.3
15 10.08 В 7 30 км 1/1 1000 м
[Cu hum]
+31.8 +22.9 59 +42 +45 опасность
перегрева
1015.0 1008.0
16 10.08 В 5 н/о н/о +31.4 +24.2 66 +44 +44 опасность
перегрева
1014.6 1007.6
17 10.08 В 5 н/о н/о +30.2 +24.0 69 +42 +42 опасность
перегрева
1014.4 1007.4
18 10.08 В 4 20 км 4/4 300 м
[Cu hum]
+29.5 +24.6 75 +42 +42 опасность
перегрева
1014.3 1007.3 +34.6
19 10.08 В 4 н/о н/о +28.1 +23.9 78 +39 +39 очень
душно
1014.6 1007.6
20 10.08 В 3 н/о н/о +27.7 +23.5 78 +38 +38 очень
душно
1015.0 1007.9
21 10.08 В 3 20 км 1/0
[Ac cuf]
+27.4 +23.6 80 +37 +37 очень
душно
1015.3 1008.2
22 10.08 В 3 н/о н/о +27.2 +24.1 83 +38 +38 очень
душно
1015.3 1008.2
23 10.08 В 3 н/о н/о +26.7 +24.2 86 +37 +37 очень
душно
1015.1 1008.0
00 11.08 В 3 20 км 1/1 600 м
[Cu Sc]
+26.6 +24.3 87 +37 +37 очень
душно
1015.0 1007.9
01 11.08 СВ 4 н/о н/о +26.5 +24.3 88 +37 +37 очень
душно
1014.7 1007.6
02 11.08 В 4 н/о н/о +26.6 +24.1 86 +37 +37 очень
душно
1014.3 1007.2
03 11.08 СВ 3 20 км 6/6 300 м
[Cu Sc]
+26.6 +23.9 85 +37 +37 очень
душно
1013.9 1006.8
04 11.08 СВ 4 н/о н/о +26.3 +23.6 85 +36 +36 очень
душно
1013.8 1006.7
05 11.08 СВ 2 н/о н/о +26.1 +23.2 84 +35 +35 очень
душно
1013.6 1006.5
06 11.08 СВ 2 30 км 6/6 1000 м
[Sc diur, vesp]
+26.2 +22.9 82 +35 +35 очень
душно
1014.2 1007.1 +26.0
07 11.08 СВ 4 н/о н/о +27.4 +22.6 75 +36 +36 очень
душно
1014.1 1007.0
08 11.08 ЮВ 2 н/о н/о +28.9 +22.2 67 +38 +38 очень
душно
1014.4 1007.4
09 11.08 В 2 15 км 4/4 600 м
[Cu Sc Ci fib]
+30.8 +22.1 60 +40 +46 очень
душно
1013.7 1006.7
10 11.08 Ю 3 н/о н/о +32.0 +21.2 53 +40 +40 очень
душно
1013.4 1006.4
11 11.08 ЮВ 5 н/о н/о +31.9 +22.6 58 +42 +42 опасность
перегрева
1012.8 1005.8
12 11.08 ЮВ 5 20 км 3/1 600 м
[Cu hum Ac As Ci fib]
+32.0 +22.4 57 +41 +50 опасность
перегрева
1012.2 1005.2
13 11.08 ЮВ 5 н/о н/о +33.0 +22.4 54 +42 +42 опасность
перегрева
1011.3 1004.4
14 11.08 В 6 н/о н/о +33.6 +21.1 48 +41 +41 опасность
перегрева
1010.9 1004.0
15 11.08 ЮВ 5 25 км 3/1 600 м
[Cu med, cong Ac As Ci sp]
+32.3 +22.3 56 +42 +46 опасность
перегрева
1010.9 1004.0
16 11.08 ЮВ 6 н/о н/о +31.3 +22.9 61 +41 +41 опасность
перегрева
1010.9 1003.9
17 11.08 В 5 н/о н/о +30.6 +23.3 65 +41 +41 опасность
перегрева
1010.8 1003.8
18 11.08 В 5 20 км 4/1 600 м
[Cu med, cong Ac As Cs]
+28.8 +23.9 75 +40 +40 очень
душно
1010.9 1003.9 +33.6
19 11.08 В 4 н/о н/о +28.0 +24.1 79 +39 +39 очень
душно
1011.6 1004.6
20 11.08 В 4 н/о н/о +27.5 +24.1 82 +38 +38 очень
душно
1012.3 1005.3
21 11.08 СВ 3 15 км 5/1 600 м
[Cu Sc Ac trans Cs]
+27.3 +23.8 81 +37 +37 очень
душно
1013.0 1005.9
22 11.08 В 1 н/о н/о +27.0 +23.9 83 +37 +37 очень
душно
1013.0 1005.9
23 11.08 В 1 н/о н/о +26.6 +23.7 84 +36 +36 очень
душно
1013.1 1006.0
00 12.08 З 2 12 км 5/0
[Ac trans Cs]
+25.6 +23.1 86 +34 +34 очень
душно
1012.9 1005.8
01 12.08 СЗ 3 н/о н/о +25.3 +23.0 87 +34 +34 очень
душно
1012.6 1005.5
02 12.08 СЗ 2 н/о н/о +25.1 +22.4 85 +33 +33 очень
душно
1012.2 1005.1
03 12.08 СЗ 2 12 км 8/4 300 м
[Cu Sc Ac As]
+24.2 +21.9 87 +31 +31 очень
душно
1012.2 1005.1
04 12.08 СЗ 2 н/о н/о +24.1 +21.4 85 +31 +31 очень
душно
1012.4 1005.3
05 12.08 З 1 н/о н/о +24.1 +21.4 85 +31 +31 очень
душно
1012.8 1005.7
06 12.08 З 1 20 км 9/5 1000 м
[Sc As trans Ci]
+24.3 +18.5 70 +29 +29 душно 1013.4 1006.3 +24.1
07 12.08 З 1 н/о н/о +26.2 +18.3 62 +31 +31 очень
душно
1014.2 1007.1
08 12.08 В 3 н/о н/о +28.6 +15.0 44 +31 +31 жарко 1014.8 1007.7
09 12.08 В 4 30 км 6/5 1000 м
[Cu Sc Ac trans]
+29.1 +14.9 42 +32 +35 душно 1015.1 1008.0
10 12.08 В 5 н/о н/о +30.5 +14.3 37 +32 +32 жарко 1015.4 1008.4
11 12.08 В 7 н/о н/о +30.7 +12.9 34 +32 +32 жарко 1015.4 1008.4
12 12.08 В 7 30 км 4/1 1000 м
[Cu med, cong Ac As Ci]
+30.5 +13.4 35 +32 +35 жарко 1015.3 1008.3
13 12.08 В 8 н/о н/о +29.7 +15.9 43 +33 +33 душно 1015.3 1008.3
14 12.08 В 7 н/о н/о +29.2 +18.0 51 +34 +34 очень
душно
1015.4 1008.4
15 12.08 ЮВ 6 25 км 6/4 600 м
[Cu Sc Ac trans Cs]
+29.1 +19.2 55 +35 +37 очень
душно
1015.0 1008.0
16 12.08 В 6 н/о н/о +27.7 +19.5 61 +33 +33 очень
душно
1015.3 1008.2
17 12.08 В 5 н/о н/о +27.3 +20.4 66 +34 +34 очень
душно
1015.1 1008.0
18 12.08 В 4 20 км 6/6 600 м
[Cu Sc Ci fib]
+26.6 +20.9 71 +33 +34 очень
душно
1015.4 1008.3 +31.0
19 12.08 В 4 н/о н/о +26.0 +20.1 70 +32 +32 очень
душно
1016.3 1009.2
20 12.08 В 3 н/о н/о +25.6 +19.9 71 +31 +31 очень
душно
1017.1 1010.0
21 12.08 В 3 20 км 3/3 600 м
[Sc]
+25.5 +19.6 70 +31 +31 очень
душно
1017.9 1010.8
22 12.08 СВ 2 н/о н/о +25.3 +19.4 70 +31 +31 очень
душно
1018.4 1011.3
23 12.08 С 2 н/о н/о +24.9 +19.0 70 +30 +30 душно 1018.8 1011.6
00 13.08 С 2 20 км 1/1 600 м
[St]
+24.2 +19.2 74 +29 +29 душно 1018.8 1011.6
01 13.08 СВ 3 н/о н/о +24.7 +16.9 62 +28 +28 душно 1018.6 1011.4
02 13.08 СВ 2 н/о н/о +24.5 +11.1 43 +26 +26 жарко 1018.4 1011.2
03 13.08 С 2 20 км 6/4 600 м
[Sc Ac As]
+24.2 +12.5 48 +26 +26 жарко 1018.3 1011.1
04 13.08 С 1 н/о н/о +23.6 +14.1 55 +26 +26 жарко 1018.2 1011.0
05 13.08 СВ 2 н/о н/о +24.4 +9.2 38 +25 +25 комфорт 1018.2 1011.0
06 13.08 СВ 3 30 км 9/6 1000 м
[Sc Ac As]
+24.5 +9.6 39 +25 +25 комфорт 1018.5 1011.3 +23.4
07 13.08 СВ 2 н/о н/о +25.2 +10.6 40 +26 +26 жарко 1019.2 1012.0
08 13.08 В 3 н/о н/о +25.9 +12.7 44 +28 +28 жарко 1019.4 1012.2
09 13.08 В 5 30 км 8/8 600 м
[Cu Sc]
+26.5 +14.6 48 +29 +30 жарко 1019.5 1012.4
10 13.08 В 5 н/о н/о +26.0 +16.3 55 +29 +29 душно 1019.8 1012.6
11 13.08 В 6 н/о н/о +26.0 +17.1 58 +30 +30 душно 1019.4 1012.3
12 13.08 В 5 30 км 8/8 600 м
[Cu Sc]
+26.0 +16.8 57 +30 +32 душно 1019.1 1012.0
13 13.08 ЮВ 4 н/о н/о +26.5 +17.1 56 +30 +30 душно 1019.0 1011.9
14 13.08 В 5 н/о н/о +27.6 +17.5 54 +32 +32 очень
душно
1017.9 1010.8
15 13.08 ЮВ 5 35 км 3/3 1000 м
[Cu Sc Ac cuf]
+27.0 +17.5 56 +31 +35 душно 1017.5 1010.4
16 13.08 ЮВ 5 н/о н/о +27.5 +18.2 57 +32 +32 очень
душно
1017.1 1010.0
17 13.08 ЮВ 5 н/о н/о +26.6 +18.7 62 +32 +32 очень
душно
1017.3 1010.2
18 13.08 ЮВ 4 35 км 1/1 600 м
[Cu hum Ac cuf]
+25.7 +18.9 66 +31 +31 очень
душно
1017.5 1010.4 +28.5
19 13.08 ЮВ 4 н/о н/о +24.9 +19.3 71 +30 +30 душно 1018.0 1010.8
20 13.08 В 3 н/о н/о +24.8 +18.7 69 +30 +30 душно 1018.6 1011.4
21 13.08 В 1 35 км 5/3 600 м
[Cu hum Ac trans Ci fib]
+24.7 +19.1 71 +30 +30 очень
душно
1019.3 1012.1
22 13.08 СЗ 2 н/о н/о +24.5 +19.6 74 +30 +30 очень
душно
1019.5 1012.3
23 13.08 СЗ 3 н/о н/о +24.0 +19.3 75 +29 +29 душно 1019.5 1012.3
00 14.08 СЗ 2 35 км 5/1 600 м
[Cu Sc Ac trans]
+23.9 +19.2 75 +29 +29 душно 1019.1 1011.9
01 14.08 СЗ 3 н/о н/о +23.1 +19.3 79 +29 +29 очень
душно
1019.0 1011.8
02 14.08 СЗ 3 н/о н/о +22.7 +19.1 80 +29 +29 очень
душно
1018.8 1011.6
03 14.08 СЗ 2 35 км 1/1 1500 м
[Cu hum Ac trans]
+22.2 +18.8 81 +28 +28 душно 1018.5 1011.3
04 14.08 З 3 н/о н/о +21.9 +18.7 82 +27 +27 душно 1018.5 1011.3
05 14.08 З 2 н/о н/о +21.0 +18.5 86 +26 +26 душно 1018.7 1011.5
06 14.08 З 1 40 км ясно +21.7 +18.9 84 +27 +27 душно 1018.9 1011.7 +21.0
07 14.08 З 2 н/о н/о +24.1 +18.7 72 +29 +29 душно 1019.1 1011.9
08 14.08 З 1 н/о н/о +26.9 +18.7 61 +32 +32 очень
душно
1019.2 1012.1
09 14.08 В 2 40 км 1/0
[Ci sp]
+28.7 +18.3 53 +33 +43 очень
душно
1018.7 1011.6
10 14.08 В 3 н/о н/о +29.7 +18.6 51 +35 +35 очень
душно
1018.5 1011.4
11 14.08 ЮВ 4 н/о н/о +30.6 +18.4 48 +35 +35 очень
душно
1017.8 1010.8
12 14.08 ЮВ 6 40 км 1/1 1000 м
[Cu hum Ci sp]
+30.0 +19.7 54 +36 +42 очень
душно
1017.3 1010.3
13 14.08 ЮВ 6 н/о н/о +30.3 +19.3 52 +36 +36 очень
душно
1016.7 1009.7
14 14.08 В 5 н/о н/о +30.6 +19.1 50 +36 +36 очень
душно
1016.1 1009.1
15 14.08 В 6 45 км 1/1 1000 м
[Cu hum]
+31.5 +17.7 44 +36 +40 очень
душно
1015.7 1008.7
16 14.08 В 6 н/о н/о +30.8 +17.2 44 +35 +35 очень
душно
1015.5 1008.5
17 14.08 В 6 н/о н/о +30.3 +16.8 44 +34 +34 очень
душно
1015.6 1008.6
18 14.08 В 4 45 км 1/0
[Ci fib]
+29.0 +21.2 63 +37 +37 очень
душно
1015.7 1008.7 +31.6
19 14.08 СВ 5 н/о н/о +27.4 +21.6 71 +35 +35 очень
душно
1016.3 1009.2
20 14.08 СВ 4 н/о н/о +26.8 +20.2 67 +33 +33 очень
душно
1016.9 1009.8
21 14.08 С 2 30 км ясно +26.4 +18.3 61 +31 +31 душно 1017.5 1010.4
22 14.08 В 2 н/о н/о +25.9 +19.3 67 +31 +31 очень
душно
1017.7 1010.6
23 14.08 В 2 н/о н/о +25.2 +21.1 78 +32 +32 очень
душно
1017.5 1010.4
00 15.08 ЮЗ 3 20 км ясно +24.0 +18.9 73 +29 +29 душно 1017.7 1010.5
01 15.08 ЮЗ 2 н/о н/о +23.3 +18.4 74 +29 +29 душно 1017.3 1010.1
02 15.08 С 1 н/о н/о +23.6 +18.3 72 +28 +28 душно 1017.1 1009.9
03 15.08 З 2 25 км ясно +22.3 +17.9 76 +27 +27 душно 1017.2 1010.0
04 15.08 СЗ 2 н/о н/о +21.8 +17.8 78 +26 +26 душно 1017.1 1009.9
05 15.08 З 2 н/о н/о +21.2 +18.0 82 +25 +25 комфорт 1017.5 1010.3
06 15.08 З 1 35 км 1/1 1000 м
[Cu hum]
+21.7 +17.7 78 +26 +27 душно 1018.1 1010.9 +20.9
07 15.08 СЗ 1 н/о н/о +24.6 +18.0 67 +29 +29 душно 1018.4 1011.2
08 15.08 штиль 0 н/о н/о +27.5 +18.6 58 +32 +32 очень
душно
1018.2 1011.1
09 15.08 ЮВ 1 25 км 1/1 600 м
[Cu hum]
+29.7 +18.4 51 +35 +45 очень
душно
1018.2 1011.1
10 15.08 СВ 2 н/о н/о +31.3 +18.3 46 +36 +36 очень
душно
1018.1 1011.1
11 15.08 В 4 н/о н/о +31.0 +22.1 59 +40 +40 очень
душно
1017.7 1010.7
12 15.08 В 5 30 км 3/3 600 м
[Cu hum]
+31.1 +22.2 59 +40 +46 очень
душно
1017.3 1010.3
13 15.08 В 6 н/о н/о +30.5 +22.1 61 +39 +39 очень
душно
1016.9 1009.9
14 15.08 В 6 н/о н/о +31.1 +21.1 55 +39 +39 очень
душно
1016.4 1009.4
15 15.08 ЮВ 6 40 км 1/1 600 м
[Cu hum Ac trans]
+30.1 +20.6 57 +37 +41 очень
душно
1016.1 1009.1
16 15.08 В 5 н/о н/о +29.8 +20.9 59 +37 +37 очень
душно
1016.2 1009.2
17 15.08 В 7 н/о н/о +28.5 +21.0 64 +36 +36 очень
душно
1016.1 1009.0
18 15.08 В 6 30 км 3/3 600 м
[Cu hum]
+27.6 +20.7 66 +34 +34 очень
душно
1016.6 1009.5 +31.3
19 15.08 СВ 5 н/о н/о +26.6 +20.9 71 +33 +33 очень
душно
1017.1 1010.0
20 15.08 СВ 4 н/о н/о +26.2 +21.4 75 +33 +33 очень
душно
1018.0 1010.9
21 15.08 СВ 3 20 км 1/1 600 м
[Cu med, cong]
+26.0 +21.9 78 +33 +33 очень
душно
1018.4 1011.3
22 15.08 СВ 3 н/о н/о +25.6 +21.5 78 +33 +33 очень
душно
1018.5 1011.4
23 15.08 СВ 3 н/о н/о +25.6 +21.1 76 +32 +32 очень
душно
1018.4 1011.3
00 16.08 С 3 20 км 3/3 600 м
[Cu Sc]
+25.3 +20.0 72 +31 +31 очень
душно
1018.4 1011.3
01 16.08 СЗ 3 н/о н/о +23.9 +19.0 74 +29 +29 душно 1018.2 1011.0
02 16.08 СЗ 4 н/о н/о +23.3 +19.0 77 +30 +30 очень
душно
1018.0 1010.8
03 16.08 СЗ 4 20 км 8/8 300 м
[Cu Sc]
+23.2 +18.3 74 +29 +29 душно 1017.8 1010.6
04 16.08 СЗ 4 н/о н/о +23.3 +18.6 75 +29 +29 душно 1017.6 1010.4
05 16.08 СЗ 5 н/о н/о +22.9 +18.2 75 +29 +29 очень
душно
1017.8 1010.6
06 16.08 СЗ 5 40 км 9/9 300 м
[Cu Sc Ac trans]
+23.1 +18.0 73 +29 +29 очень
душно
1018.3 1011.1 +22.7
07 16.08 СЗ 5 н/о н/о +24.1 +17.8 68 +28 +28 душно 1018.4 1011.2
08 16.08 С 4 н/о н/о +26.4 +19.9 67 +32 +32 очень
душно
1018.5 1011.4
09 16.08 СВ 4 35 км 5/4 600 м
[Sc diur, vesp Ac cuf]
+28.5 +21.0 64 +36 +39 очень
душно
1018.4 1011.3
10 16.08 В 3 н/о н/о +29.1 +21.2 62 +37 +37 очень
душно
1018.3 1011.2
11 16.08 В 4 н/о н/о +29.9 +22.1 63 +39 +39 очень
душно
1017.7 1010.7
12 16.08 В 5 30 км 4/4 600 м
[Cu hum]
+30.3 +21.1 58 +38 +44 очень
душно
1017.2 1010.2
13 16.08 ЮВ 5 н/о н/о +29.7 +21.4 61 +38 +38 очень
душно
1016.9 1009.9
14 16.08 ЮВ 6 н/о н/о +30.2 +21.2 59 +38 +38 очень
душно
1016.5 1009.5
15 16.08 ЮВ 6 35 км 1/1 1000 м
[Cu hum]
+30.0 +21.5 60 +38 +41 очень
душно
1015.8 1008.8
16 16.08 ЮВ 5 н/о н/о +29.4 +20.3 58 +36 +36 очень
душно
1015.1 1008.1
17 16.08 ЮВ 5 н/о н/о +28.7 +21.0 63 +36 +36 очень
душно
1014.9 1007.9
18 16.08 В 5 35 км 3/3 600 м
[Cu hum]
+27.4 +21.9 72 +35 +36 очень
душно
1015.1 1008.0 +30.6
19 16.08 В 5 н/о н/о +26.5 +22.1 77 +34 +34 очень
душно
1015.5 1008.4
20 16.08 СВ 5 н/о н/о +26.3 +22.2 78 +34 +34 очень
душно
1016.2 1009.1
21 16.08 СВ 4 20 км 3/3 600 м
[St]
+26.0 +22.3 80 +34 +34 очень
душно
1016.6 1009.5
22 16.08 С 3 н/о н/о +25.6 +21.9 80 +33 +33 очень
душно
1016.6 1009.5
23 16.08 С 3 н/о н/о +25.3 +21.6 80 +32 +32 очень
душно
1016.6 1009.5
00 17.08 С 3 12 км ясно +25.1 +21.3 79 +32 +32 очень
душно
1016.1 1009.0
01 17.08 З 2 н/о н/о +23.9 +20.8 83 +30 +30 очень
душно
1015.7 1008.5
02 17.08 З 1 н/о н/о +23.3 +20.6 85 +31 +31 очень
душно
1015.4 1008.2
03 17.08 СЗ 2 12 км ясно +22.8 +20.3 86 +30 +30 очень
душно
1015.3 1008.1
05 17.08 СЗ 2 н/о н/о +22.2 +20.1 88 +28 +28 душно 1015.5 1008.3
06 17.08 СЗ 2 35 км 1/0
[Ac trans]
+22.4 +20.1 87 +29 +29 очень
душно
1016.0 1008.8 +21.8
07 17.08 СЗ 2 н/о н/о +24.3 +20.4 79 +30 +30 очень
душно
1016.2 1009.0
08 17.08 СЗ 1 н/о н/о +27.2 +20.8 68 +34 +34 очень
душно
1016.2 1009.1
09 17.08 В 1 25 км 1/1 600 м
[Cu hum]
+29.1 +20.0 58 +35 +46 очень
душно
1015.9 1008.9

 

Местоположение метеостанции Валенсия (Испания): широта 39.50 долгота -0.47 высота над уровнем моря 62 м.

В архиве по умолчанию представлена погода в Валенсии за последнюю неделю. Архивные данные за месяц целиком и за предыдущие месяцы, начиная с января 2011 года, Вы можете получить, выбрав интересующий диапазон дат из раскрывающегося списка и нажав кнопку "Ввод!".


*Определитесь, кто Вы:
робот инопланетянин человек

Внимание! Время в таблицах - всемирное. Для получения местного времени необходимо прибавить поправку, которая равна 1 ч.

Смотрите также архив погоды в соседних городах и на ближайших метеорологических станциях:

Погода в Валенсии Виверос (Испания) (9 км)
Погода в Полинье (Испания) (37 км)
Погода в Хативе (Испания) (56 км)
Погода в Кастельон-де-ла-Плане (Испания) (61 км)
Погода в Утьель - La Cubera (Испания) (67 км)
Погода в Оливе (Испания) (71 км)
Погода в Хавеа - Аюнтамиенто (Испания) (97 км)
Погода в Теруэле (Испания) (110 км)
Погода в Екле (Испания) (117 км)
Погода в Вильяфранке (Испания) (121 км)

Пояснения к столбцам:

Ветер - указаны скорость ветра в м/с - средняя за 10 мин, порывы в срок и между сроками (в фигурных скобках) и направление, откуда дует ветер: С - северный, СВ - северо-восточный, В - восточный, ЮВ - юго-восточный, Ю - южный, ЮЗ - юго-западный, З - западный, СЗ - северо-западный.
Видимость - горизонтальная дальность видимости в метрах или километрах. При видимости от 1 до 10 км при отсутствии осадков обычно наблюдается дымка, при ухудшении видимости до 1 км и менее - туман. В сухую погоду видимость может ухудшаться дымом, пылью или мглою.
Явления - указаны атмосферные явления, наблюдавшиеся в срок или в последний час перед сроком; фигурными скобками обозначены явления, наблюдавшиеся между сроками (за 1-3 часа до срока); квадратными скобками обозначены град или гололедные отложения с указанием их диаметра в мм.
Облачность - указаны через наклонную черту общая и нижняя облачность в баллах и высота нижней границы облаков в метрах; квадратными скобками обозначены формы облаков: Ci - перистые, Cs - перисто-слоистые, Cc - перисто-кучевые, Ac - высококучевые, As - высокослоистые, Sc - слоисто-кучевые, Ns - слоисто-дождевые, Cu - кучевые, Cb - кучево-дождевые. Подробнее классификацию облаков см. в Атласе облаков (PDF).
T - Температура воздуха - температура, измеренная на высоте 2 м над землей.
Td - Температура точки росы - температура, при понижении до которой содержащийся в воздухе водяной пар достигнет насыщения.
f - Относительная влажность воздуха - влажноcть воздуха, измеренная на высоте 2 м над землей.
Te - Эффективная температура - температура, которую ощущает одетый по сезону человек в тени. Характеристика душности погоды. При расчете учитывается влияние влажности воздуха и скорости ветра на теплоощущения человека.
Tes - Эффективная температура на солнце - температура, которую ощущает человек, с поправкой на солнечный нагрев. Характеристика знойности погоды. Зависит от высоты солнца над горизонтом, облачности и скорости ветра. Ночью, в пасмурную погоду, а также при ветре 12 м/с и более поправка равна нулю.
P - Атмосферное давление - приведенное к уровню моря атмосферное давление.
Po - Атмосферное давление - измеренное на уровне метеостанции атмосферное давление.
Tmin - Минимальная температура - минимум температуры воздуха на высоте 2 м над землей.
Tmax - Максимальная температура - максимум температуры воздуха на высоте 2 м над землей.
R - Количество осадков - Количество выпавших осадков за период времени, мм. При наведении курсора мыши на число - период времени, за который выпало указанное количество осадков.
R24 - Количество осадков - Количество выпавших осадков за 24 часа, мм.
S - Снежный покров - Высота снежного покрова, см. При наведении курсора мыши на число - состояние снежного покрова и степень покрытия местности в баллах.